Home > Weather > Houston > Past weeks

Flag for U.S.A. Weather for the Past 2 Weeks in Houston, Texas, U.S.A.

Now
46 °F

Clear.


Feels Like: 46 °F
Forecast: 43 / 70 °F
Wind: No wind

Location: Houston Hobby Airport

Current Time: Feb 10, 2016 at 2:53:46 AM

Latest Report: Feb 10, 2016 at 1:53 AM


Visibility: 10 mi

Pressure: 30.35 "Hg

Humidity: 63%

Dew point: 34 °F

Location of HoustonLocation

Historic Weather in Houston — Graph

°F

Houston Temperature Yesterday

Maximum temperature yesterday: 66 °F (at 2:53 PM)
Minimum temperature yesterday: 42 °F (at 6:53 AM)
Average temperature yesterday: 53 °F

High & Low Weather Summary for the Past Weeks

 TemperatureHumidityPressure
High77 °F (Jan 31, 12:53 PM)100% (Jan 30, 7:53 AM)30.51 "Hg (Jan 30, 7:53 AM)
Low35 °F (Jan 28, 6:53 AM)10% (Feb 8, 4:53 PM)29.62 "Hg (Feb 2, 12:53 AM)
Average56 °F56%30.14 "Hg
* Reported Jan 26 12:53 AM — Feb 10 12:53 AM, Houston, Weather by CustomWeather, © 2016

Note: Actual official high and low records may vary slightly from our data, if they occured in-between our weather recording intervals... More about our weather records

Advertising

Houston Weather History for the Previous 24 Hours

 ConditionsComfort  
Time TempWeatherWind HumidityBarometerVisibility
12:53 AM
Wed, Feb 10
46 °FClear.No wind61%30.33 "Hg10 mi
11:53 PM
Tue, Feb 9
47 °FClear.No wind59%30.32 "Hg10 mi
10:53 PM50 °FClear.No wind50%30.32 "Hg10 mi
9:53 PM51 °FClear.No wind44%30.29 "Hg10 mi
8:53 PM50 °FClear.3 mph48%30.27 "Hg10 mi
7:53 PM54 °FClear.No wind37%30.26 "Hg10 mi
6:53 PM58 °FClear.3 mph28%30.25 "Hg10 mi
5:53 PM63 °FSunny.8 mph21%30.24 "Hg10 mi
4:53 PM65 °FSunny.15 mph19%30.23 "Hg10 mi
3:53 PM65 °FSunny.14 mph18%30.23 "Hg10 mi
2:53 PM66 °FSunny.17 mph16%30.24 "Hg10 mi
1:53 PM65 °FSunny.16 mph16%30.25 "Hg10 mi
12:53 PM62 °FSunny.15 mph15%30.28 "Hg10 mi
11:53 AM59 °FSunny.13 mph15%30.32 "Hg10 mi
10:53 AM56 °FSunny.12 mph15%30.37 "Hg10 mi
9:53 AM52 °FSunny.12 mph19%30.39 "Hg10 mi
8:53 AM49 °FSunny.9 mph23%30.39 "Hg10 mi
7:53 AM44 °FSunny.7 mph34%30.36 "Hg10 mi
6:53 AM42 °FClear.5 mph35%30.35 "Hg10 mi
5:53 AM44 °FPassing clouds.6 mph31%30.33 "Hg10 mi
4:53 AM47 °FPassing clouds.10 mph25%30.30 "Hg10 mi
3:53 AM44 °FPassing clouds.8 mph35%30.28 "Hg10 mi
2:53 AM44 °FPassing clouds.7 mph37%30.29 "Hg10 mi
Weather by CustomWeather, © 2016

See weather overviewHow to use our weather pages